Theta_e
329 328 324 323 324 322 317 314 300 309 307 297 295 298 292 300 300 299 297 301 297 298 299 301 298 298 295 294 294 295 295 293 296 289 290 298 305 304 303 303 303 304 306 304 304 303 302 307 311 312 314 317 318 319 319 319 318 318 318 318 318 318 319 320 322 323 324 325 326 326 327 328 327 327 327 328 328 328 329 329 329 331 333 333 334 334 334 336 337 339 337 337 339 341 343 343 343
326 326 325 327 321 321 312 313 305 300 302 294 293 295 295 295 299 296 294 295 296 297 298 300 300 299 300 300 295 297 295 296 299 298 304 307 302 302 303 303 302 302 305 304 304 301 301 305 311 311 313 316 317 318 318 318 317 317 317 317 318 319 319 320 321 322 323 325 325 326 327 326 327 327 327 326 327 327 328 328 328 329 331 332 332 332 334 334 336 337 337 338 338 340 338 340 341
319 323 323 322 317 316 312 312 300 299 296 291 291 293 296 295 294 296 297 297 297 298 299 302 301 300 298 299 295 293 291 300 299 300 303 304 301 299 302 303 303 304 306 304 305 302 302 305 311 311 313 314 316 317 317 317 317 317 317 317 317 318 319 320 321 321 322 324 324 325 326 327 327 327 326 326 327 327 327 327 327 327 328 330 330 331 331 333 334 334 335 336 336 337 339 339 341
322 321 318 320 313 316 308 306 302 297 293 292 289 296 296 295 294 296 297 298 297 298 298 299 296 300 298 295 294 296 296 296 299 299 298 298 298 302 302 303 304 302 304 307 303 302 303 307 310 311 312 313 316 316 317 316 316 316 316 316 317 318 318 319 320 320 321 323 325 326 326 327 326 326 326 325 326 326 325 325 325 325 327 328 329 330 331 332 331 333 334 334 335 336 337 338 339
315 322 321 315 315 310 309 305 298 297 291 291 290 295 295 295 294 295 295 296 297 296 298 298 297 303 299 298 297 293 294 298 298 300 300 302 304 304 304 305 304 301 304 303 302 302 303 308 310 310 311 313 314 315 316 315 315 315 315 316 317 318 318 318 318 319 321 323 324 325 325 326 326 326 324 325 324 324 324 324 325 324 325 327 329 329 330 329 331 332 332 333 334 334 335 337 337
317 317 321 318 309 315 307 298 296 291 292 294 292 292 295 295 295 296 295 297 297 297 297 298 295 295 296 297 299 294 300 296 299 300 301 300 306 308 304 309 302 301 302 302 302 302 304 308 310 310 310 312 314 314 315 314 314 314 314 315 316 317 317 317 317 318 321 323 323 324 325 325 325 324 325 324 324 324 323 323 323 323 324 326 327 328 329 329 330 330 331 331 332 332 335 336 337
316 317 318 315 315 315 302 297 292 292 291 296 294 293 294 295 294 296 295 295 297 297 298 296 297 296 294 298 299 300 300 300 300 302 305 305 308 308 306 302 302 302 303 302 302 302 306 309 309 310 311 312 313 313 314 314 313 313 314 314 315 316 316 317 316 318 321 322 323 324 324 324 324 323 323 323 324 324 323 323 322 321 322 324 326 327 328 328 328 328 329 330 329 331 332 334 335
320 316 316 307 304 303 298 293 291 293 291 295 295 294 295 295 295 297 294 294 293 293 296 297 296 295 295 299 293 300 301 302 301 304 303 303 308 308 307 302 302 302 303 302 302 303 311 308 309 310 311 312 312 313 313 313 313 313 313 313 314 315 316 315 316 318 322 322 323 323 323 323 323 322 322 322 322 324 323 322 322 321 320 322 324 325 326 326 326 327 327 328 328 329 330 332 334
316 313 318 309 299 301 294 291 290 294 293 294 294 297 297 295 296 295 293 293 294 295 295 296 296 292 293 295 296 298 299 301 302 305 304 305 307 308 306 303 301 305 306 303 302 303 306 308 309 310 310 311 312 312 313 313 313 313 313 313 313 314 315 315 316 318 321 322 322 322 322 322 322 322 321 321 321 322 322 321 321 321 320 320 322 324 325 325 325 325 326 326 327 328 329 332 334
313 313 304 305 303 295 291 290 290 292 292 294 293 294 294 294 294 294 294 293 293 294 295 296 295 292 295 295 295 299 298 303 302 303 304 306 308 309 308 306 306 306 305 304 303 303 304 312 309 309 310 310 311 311 312 313 313 313 313 313 312 313 314 314 315 317 320 322 321 321 321 320 320 320 320 320 320 320 320 320 319 320 319 319 321 322 323 323 323 323 325 325 326 327 328 330 331
307 312 312 303 297 291 293 290 290 292 292 293 294 296 294 293 295 294 294 294 295 294 295 296 293 295 295 296 294 300 301 301 302 301 304 304 307 306 304 306 306 307 303 307 306 305 303 305 313 309 309 309 310 311 311 312 313 313 312 313 312 312 314 314 314 316 318 320 320 320 320 319 319 318 318 317 317 317 317 318 318 318 318 318 317 320 320 321 321 322 323 324 325 326 329 330 331
304 303 307 299 296 295 292 290 290 291 292 292 291 294 294 295 295 293 293 293 294 294 295 296 294 296 293 296 295 298 301 301 303 302 303 307 302 305 308 303 308 307 307 306 307 304 305 305 304 311 309 309 310 310 310 311 311 312 312 312 312 312 313 314 313 314 316 318 319 318 319 319 318 318 316 316 316 316 316 315 316 317 316 316 317 317 318 320 321 321 322 323 324 326 328 328 330
308 307 299 297 295 293 292 291 290 291 290 290 292 295 294 294 293 295 295 294 294 293 294 297 299 297 293 294 296 299 299 300 301 305 306 302 304 302 306 303 309 308 309 308 306 305 307 304 303 304 308 310 309 309 309 309 310 311 311 311 312 313 313 313 312 313 314 316 318 317 318 318 318 317 316 316 316 315 314 313 314 315 316 316 316 318 319 319 320 321 321 322 324 325 326 326 329
309 307 303 297 297 293 293 291 290 289 289 292 294 295 295 294 296 296 294 293 294 294 297 298 298 296 293 296 296 295 297 302 301 306 302 306 306 305 308 306 307 308 309 309 306 304 304 305 303 304 304 303 303 307 310 309 310 311 311 312 313 312 311 311 311 312 312 314 316 316 317 317 316 315 316 316 315 314 314 313 314 314 315 315 314 315 317 318 319 320 321 322 322 323 324 324 326
305 308 302 299 294 294 294 290 289 291 288 293 294 294 294 296 296 295 294 293 294 298 299 300 299 296 290 292 295 297 298 301 304 307 307 307 308 307 308 309 310 308 305 305 305 304 304 305 304 303 304 303 303 302 302 304 309 310 311 311 309 309 309 309 310 310 310 311 313 314 315 314 314 314 314 315 314 313 314 313 312 312 314 314 315 315 317 318 318 319 320 321 321 322 323 323 325
310 306 302 297 292 292 292 293 293 293 289 293 294 295 293 295 297 294 297 296 296 299 298 293 299 294 296 295 297 299 300 302 304 307 304 307 307 307 306 307 306 304 304 304 304 304 303 303 304 303 303 302 303 303 302 302 308 309 309 308 308 307 307 307 308 307 307 309 311 313 314 311 310 309 314 310 312 313 312 311 312 312 313 313 313 315 315 316 317 318 319 320 320 320 321 322 325
308 309 298 295 290 292 292 294 292 288 290 292 294 293 291 293 295 296 298 299 294 295 295 298 297 299 296 297 299 300 300 304 306 305 306 305 302 301 302 301 302 300 309 304 306 303 303 303 303 302 302 303 302 302 303 303 305 309 307 309 308 307 307 306 307 307 308 309 310 311 311 307 307 307 308 308 311 309 311 311 311 312 312 312 312 313 314 315 316 317 318 318 319 319 320 322 324
308 302 297 294 293 290 292 290 291 293 291 290 292 292 294 292 294 296 298 295 295 295 295 297 298 298 299 299 301 301 303 303 304 303 302 302 302 300 299 299 299 299 301 302 303 303 302 302 303 302 301 301 302 305 306 305 304 305 300 300 300 303 305 308 302 302 307 303 310 307 307 307 306 306 307 310 309 310 310 311 311 311 310 311 312 312 313 314 316 316 317 318 319 319 320 320 324
302 298 297 292 291 291 292 293 293 292 291 293 293 294 295 294 296 296 293 294 294 293 295 296 296 297 299 299 299 300 300 302 304 304 303 303 302 302 300 301 300 300 300 300 300 301 303 303 304 302 302 301 301 301 305 304 301 300 300 299 300 303 302 302 298 300 299 302 305 305 307 306 306 306 307 311 311 311 311 312 312 311 310 310 310 310 312 313 314 315 317 318 318 318 317 319 321
298 298 293 290 292 291 294 295 294 295 295 293 293 294 294 294 295 297 293 291 294 292 292 293 294 296 297 299 300 303 304 303 304 303 303 303 303 303 302 301 299 299 300 301 301 306 304 302 302 302 302 301 301 301 304 300 300 300 299 298 297 297 297 298 297 297 297 300 302 305 307 306 306 306 309 311 311 309 310 312 312 311 311 311 312 310 312 313 314 314 314 315 316 316 313 315 320
297 294 290 291 292 290 292 294 294 295 295 295 294 293 293 295 296 295 293 290 292 293 294 293 293 294 296 299 302 304 303 303 302 303 303 302 304 304 302 302 300 301 301 301 301 305 302 302 302 302 302 301 302 300 301 299 301 300 299 297 297 297 296 296 297 296 296 298 301 305 308 306 305 305 306 308 309 309 310 310 312 308 307 307 311 307 307 310 312 311 311 313 309 310 313 315 319
295 290 293 293 293 290 293 293 293 293 294 295 293 292 295 296 294 293 292 289 289 294 295 296 296 296 297 298 300 301 300 300 299 300 301 302 302 302 303 301 303 300 301 299 300 300 303 303 302 302 301 301 302 300 300 301 303 299 298 298 297 297 297 296 296 295 296 297 300 305 307 306 305 305 306 307 309 310 310 310 312 312 310 310 311 309 309 310 309 311 314 314 311 312 314 317 320
289 291 292 294 293 291 294 293 293 292 294 293 293 294 294 293 293 295 294 292 293 297 299 297 298 299 298 299 298 297 297 297 298 300 302 302 302 303 303 301 300 299 299 299 301 301 303 303 303 303 301 302 302 302 300 300 300 300 299 299 298 296 296 296 294 295 296 296 298 303 304 304 305 306 307 308 310 310 310 310 311 313 313 313 314 316 316 317 315 318 318 318 318 318 319 320 323
294 288 292 292 294 292 293 292 295 292 292 293 294 296 292 293 290 294 292 295 297 297 298 298 298 298 298 296 296 296 297 298 299 301 302 302 303 304 303 302 300 300 301 301 301 302 302 303 303 303 301 302 300 301 300 299 299 300 300 301 297 299 298 295 294 296 298 294 298 301 303 304 305 306 308 309 311 311 311 312 311 312 314 314 315 317 316 317 318 320 323 323 323 324 323 324 327
291 290 292 292 293 293 293 292 293 295 294 294 295 292 292 294 293 292 292 295 296 297 298 298 298 296 296 296 296 296 297 298 298 301 304 300 302 305 305 302 301 300 300 302 302 302 303 303 303 302 302 302 301 300 300 299 299 299 300 298 297 302 296 295 296 297 294 294 296 298 300 303 305 307 308 309 312 311 311 312 312 311 311 312 313 314 315 315 315 316 318 316 315 315 315 315 316
293 291 293 292 292 293 292 293 293 295 296 297 292 292 294 294 295 292 294 295 297 298 297 296 296 296 296 296 296 296 296 297 300 300 300 302 303 303 303 301 301 300 300 301 302 301 302 302 303 302 302 301 301 301 300 299 299 299 299 299 298 299 295 296 297 294 293 293 293 296 299 304 305 306 308 309 311 311 311 312 311 311 310 311 311 312 313 312 312 313 313 312 311 311 311 312 312
294 293 293 292 292 293 295 295 294 293 295 296 294 291 293 294 295 288 296 296 297 296 296 296 296 295 296 296 296 296 296 297 297 299 300 302 301 300 301 302 300 300 300 301 301 301 302 302 302 302 302 303 302 301 300 300 300 299 300 299 298 297 296 298 296 295 294 293 295 296 298 302 305 306 307 308 311 311 311 311 311 311 310 309 310 310 311 311 311 310 310 310 309 309 308 309 310
294 293 292 292 293 293 293 294 294 293 292 293 292 291 294 297 293 289 294 296 296 295 296 296 296 295 295 296 296 297 297 297 297 299 299 299 298 298 299 298 299 300 300 300 300 301 302 302 302 303 302 301 302 302 302 300 299 299 300 298 297 297 298 296 294 295 296 293 295 295 296 299 304 305 307 308 311 311 310 311 311 311 310 310 310 310 310 310 310 309 309 309 309 308 308 307 308
293 293 290 290 292 291 292 292 294 293 292 292 294 289 290 291 291 295 295 296 295 295 295 295 296 296 296 295 295 295 295 296 296 296 298 297 298 299 298 300 299 299 299 300 300 301 300 301 302 303 303 302 302 301 301 299 299 300 299 298 298 299 297 296 295 295 294 294 294 295 295 297 302 305 305 307 311 311 311 310 311 310 310 311 310 310 310 310 310 308 307 306 306 306 306 307 307
295 294 291 289 291 289 293 294 294 292 294 293 294 285 290 291 293 296 296 295 295 294 293 294 295 295 295 295 294 295 296 297 296 297 297 298 300 300 299 300 300 299 300 299 301 300 303 305 306 306 304 303 303 301 301 300 299 299 299 297 298 298 296 295 296 295 295 295 294 293 295 296 300 303 305 306 310 311 311 310 310 311 310 311 311 310 308 307 307 308 307 305 304 304 304 304 305
291 293 293 289 287 287 292 293 293 291 294 293 294 286 289 293 296 294 295 296 294 292 293 294 295 295 295 296 296 296 297 297 297 297 301 301 300 299 300 300 300 300 300 299 300 300 301 302 305 305 305 302 302 302 303 301 301 300 299 298 298 298 297 296 295 295 293 294 294 292 294 296 297 301 305 305 306 309 310 310 310 311 312 311 310 309 308 307 306 305 306 305 304 304 304 304 304
294 289 289 291 288 290 292 293 293 290 293 295 293 286 289 292 293 294 295 295 294 292 292 293 294 295 295 295 295 294 296 298 298 298 300 301 301 299 300 299 299 299 299 299 301 301 301 301 303 302 303 302 301 302 302 302 302 300 299 302 297 299 297 297 295 294 294 294 294 293 293 296 296 297 303 305 305 307 308 309 310 311 312 311 311 309 308 307 306 306 306 305 303 302 302 302 303
293 291 290 289 290 290 290 291 294 295 291 294 292 287 290 291 292 294 295 295 294 292 293 293 295 295 295 295 295 295 297 297 300 299 299 299 300 299 301 301 301 301 300 300 299 300 301 301 302 302 301 302 302 302 301 301 302 301 300 299 299 299 297 296 295 295 294 294 293 292 294 296 293 296 299 303 304 305 306 308 309 310 312 311 311 310 309 308 307 306 305 306 305 302 302 301 302
289 292 288 292 289 291 289 289 293 294 292 289 292 287 288 292 292 293 294 294 294 292 292 293 294 294 295 296 296 295 297 297 296 298 300 300 299 301 302 303 301 301 301 301 301 300 300 300 301 301 302 302 302 301 301 301 300 300 300 300 301 298 297 297 296 297 295 294 293 293 295 295 294 294 296 300 303 304 306 306 307 308 309 310 309 309 309 309 308 306 304 305 305 304 304 303 302
289 290 290 290 291 290 291 290 290 291 292 289 289 289 290 292 295 294 294 295 294 293 293 293 293 293 294 295 296 296 296 296 297 298 303 303 301 302 300 300 300 301 300 299 300 301 301 300 301 300 300 301 301 301 300 301 300 300 300 300 299 299 299 298 296 296 296 294 294 295 295 296 294 294 294 296 300 303 304 305 306 306 307 307 306 306 306 307 307 308 306 305 305 303 302 303 303
292 292 291 291 289 290 289 289 291 290 287 288 288 288 290 293 293 295 294 294 293 293 293 293 294 294 296 296 296 296 298 297 299 303 304 303 302 303 301 300 301 301 301 300 300 300 300 300 300 300 300 301 301 300 300 299 299 298 297 298 298 299 298 298 298 296 295 295 296 296 295 295 294 296 293 294 296 299 302 304 305 306 306 305 304 304 303 304 304 304 304 305 305 305 305 304 302
293 293 294 291 291 293 292 289 290 291 288 288 289 290 291 292 293 294 296 293 292 293 292 293 294 296 296 295 295 296 297 297 305 304 304 304 304 302 302 302 301 300 300 300 299 300 300 300 300 299 300 301 300 299 298 298 298 297 297 298 296 297 296 297 297 297 295 295 297 296 295 295 294 295 294 294 294 296 298 302 304 305 305 305 303 303 304 305 305 305 305 304 303 303 303 305 306
292 290 291 290 293 289 292 291 290 294 288 287 290 290 291 293 294 295 294 293 292 292 292 293 293 294 296 296 296 298 298 302 302 302 302 303 301 303 302 301 301 299 298 298 299 300 300 300 300 299 300 300 299 299 299 298 298 298 297 296 296 296 295 296 296 296 297 298 296 296 296 294 294 294 295 294 294 294 294 296 301 303 304 304 304 304 304 305 305 304 305 303 304 302 301 303 304
290 290 290 290 289 291 290 290 289 291 290 287 289 287 289 292 294 294 292 293 293 294 295 294 294 294 294 296 296 297 298 299 299 299 301 299 302 303 302 301 301 300 299 299 300 301 301 301 301 300 300 299 299 300 300 298 299 299 299 298 298 296 297 297 296 297 298 296 296 296 296 296 295 294 294 295 294 294 293 294 295 300 303 304 303 303 303 303 304 304 304 302 301 303 301 303 303
288 290 287 285 289 286 286 290 290 292 289 286 287 286 288 292 294 294 294 293 294 298 298 299 298 297 296 296 296 296 297 297 297 298 298 298 299 301 300 301 300 300 300 300 299 299 301 301 300 300 300 300 300 300 300 300 301 300 301 301 299 298 297 298 298 297 297 297 296 296 296 295 295 294 294 294 293 293 294 293 294 295 299 301 301 301 302 302 303 303 304 303 302 300 300 301 302
288 289 285 285 284 284 284 286 290 292 293 291 288 286 288 293 289 290 292 293 295 296 297 296 296 298 298 299 297 299 295 296 296 298 298 298 298 298 298 300 300 301 301 301 301 301 304 300 301 300 301 301 300 300 301 300 300 300 299 299 299 298 298 297 296 295 297 297 297 297 297 296 296 294 294 294 294 293 294 294 294 294 294 296 299 299 300 301 301 302 303 302 302 300 301 300 302
285 284 287 285 285 284 286 288 287 285 284 290 287 284 286 290 290 289 291 291 290 294 292 293 294 294 295 295 295 297 299 298 298 297 298 298 299 299 300 301 300 301 301 301 302 303 301 300 300 300 300 300 299 300 301 300 298 298 297 296 295 295 295 296 295 295 296 296 296 297 297 297 296 295 294 295 294 295 293 294 294 293 293 293 296 295 297 298 299 300 301 301 301 302 300 301 299
285 284 287 288 287 286 286 287 284 283 283 286 288 283 281 288 289 291 290 290 290 293 292 292 293 294 294 295 295 295 297 298 298 298 298 298 298 298 299 299 299 300 301 303 304 303 301 300 299 299 299 299 301 300 301 300 299 298 297 297 296 296 295 296 296 297 297 296 297 297 296 297 297 295 294 294 294 294 293 293 294 294 293 293 294 293 294 295 296 299 299 300 300 301 301 298 300
286 286 288 288 287 286 286 285 282 284 286 284 284 284 281 279 288 291 291 291 292 291 292 293 293 294 294 295 295 295 295 296 298 298 298 298 298 298 298 298 299 299 300 302 302 302 301 300 299 300 299 300 299 301 301 302 299 298 297 297 298 297 297 297 297 297 297 297 297 296 296 296 297 296 295 294 294 294 293 293 293 293 293 292 293 291 292 294 295 296 298 298 298 299 298 298 297
287 288 289 287 287 287 287 283 282 285 282 283 283 283 282 280 288 291 292 289 291 291 292 293 294 294 294 295 295 295 297 298 298 298 298 298 299 299 299 299 300 300 301 300 300 301 302 302 301 299 299 299 299 299 300 300 301 299 298 297 297 299 299 299 298 297 296 296 296 296 296 296 296 296 296 295 294 294 295 293 293 293 292 292 293 293 291 293 293 293 293 294 295 295 296 297 296
289 289 289 289 288 287 286 283 284 284 282 282 279 279 281 282 288 291 290 289 289 292 293 294 295 297 294 295 296 296 296 298 298 298 298 298 298 299 299 299 300 299 300 302 301 302 301 300 300 300 299 299 299 299 300 299 299 300 298 296 296 297 298 297 297 297 296 296 296 296 296 297 297 296 296 295 294 295 294 293 293 293 292 293 294 291 291 293 293 292 292 293 293 293 294 293 294
291 289 287 286 285 282 284 283 283 282 281 282 278 282 282 280 287 288 287 290 292 292 293 295 297 296 297 298 297 297 297 297 298 298 298 298 298 299 299 298 298 298 299 302 301 301 300 301 300 300 300 300 299 300 299 299 299 299 298 297 297 297 297 297 297 297 296 296 296 296 296 297 297 297 296 296 295 295 294 294 293 293 293 294 294 291 291 291 291 291 292 292 292 291 291 291 292
288 285 284 284 284 284 282 283 283 281 283 281 281 282 284 280 284 290 292 293 293 292 292 293 294 295 297 298 298 297 296 296 297 297 298 299 299 298 298 298 298 299 299 301 301 302 302 302 301 300 300 300 299 300 300 300 299 299 298 298 297 298 297 298 298 297 297 296 296 296 297 297 296 297 296 295 295 295 295 294 294 293 294 293 292 292 292 292 292 292 291 291 291 290 290 292 290
286 283 285 283 284 283 282 282 281 283 283 282 281 285 281 280 286 291 291 292 293 294 294 294 294 295 296 297 298 298 298 298 298 298 298 298 297 297 298 298 298 299 300 300 302 302 302 302 301 300 299 299 300 299 299 300 299 299 299 299 298 299 298 298 298 297 297 297 296 296 296 296 296 296 295 296 295 295 296 295 294 293 293 294 293 292 292 292 292 291 290 290 290 290 290 291 289
286 283 281 283 281 280 277 282 283 283 281 281 281 285 281 286 291 293 291 293 292 293 295 296 295 296 296 297 297 297 298 298 298 298 297 297 297 298 299 299 299 298 299 300 301 301 301 302 300 299 300 299 299 299 300 300 300 300 299 299 299 299 298 298 298 298 298 298 298 296 296 296 296 296 296 296 297 296 296 296 295 294 293 293 294 293 293 292 292 291 290 290 290 290 290 290 290
284 284 285 283 282 280 278 281 279 279 281 282 280 280 282 283 287 294 292 292 294 293 293 294 295 296 296 296 296 295 295 294 295 296 297 297 298 298 299 299 299 299 300 301 300 300 300 299 299 299 299 299 299 299 299 300 300 300 299 300 299 299 298 298 298 299 298 298 297 297 297 296 296 297 296 297 297 297 296 296 295 294 294 294 294 293 295 294 293 293 292 291 291 291 291 291 290
286 286 286 284 283 284 283 283 281 280 280 280 280 281 284 287 293 293 292 292 293 293 294 294 294 295 294 295 295 296 296 296 298 299 299 299 299 300 300 299 300 299 299 299 300 300 300 300 299 299 299 299 299 299 299 300 300 300 299 299 299 299 299 299 298 298 298 298 298 298 298 297 297 296 297 297 297 297 297 297 296 295 295 295 295 294 293 293 293 292 292 291 291 293 291 290 290
285 286 284 283 285 284 282 277 277 278 278 280 283 284 289 293 291 292 292 292 293 292 293 293 294 295 295 295 296 297 299 300 301 301 300 299 298 298 298 299 299 299 299 299 300 299 300 299 299 299 299 298 299 299 299 298 299 298 299 299 299 299 299 298 298 297 297 298 298 298 298 298 298 298 298 297 297 297 298 297 297 296 296 295 295 295 294 293 293 293 292 291 291 291 291 291 291
284 284 283 287 287 285 282 282 280 281 280 281 283 281 281 283 282 291 291 292 291 292 292 292 294 296 296 296 297 299 300 299 299 299 299 299 299 298 299 299 299 299 298 298 298 298 298 298 297 298 297 297 298 298 299 299 299 298 298 299 299 299 299 299 298 298 297 297 297 298 298 297 297 298 298 299 297 297 297 297 297 296 296 296 295 295 294 294 293 293 292 292 292 291 291 291 291
287 285 285 285 284 284 283 282 276 275 275 280 282 283 281 283 286 287 288 288 290 291 292 294 294 294 296 296 296 297 297 297 297 297 297 297 297 298 297 297 297 297 297 297 298 298 298 297 297 297 298 298 298 298 298 299 298 299 301 300 299 299 299 299 299 299 298 297 297 297 298 298 298 297 297 297 297 297 297 296 296 296 296 296 296 295 295 294 293 293 293 292 292 292 291 291 291
287 287 285 283 283 282 283 283 282 282 277 278 279 282 281 288 288 289 289 290 291 292 291 293 293 295 295 295 297 298 298 298 297 297 297 297 297 297 297 297 297 297 297 297 297 297 297 297 297 297 297 297 297 297 297 297 297 298 299 298 299 299 299 299 299 298 298 298 298 298 298 298 298 298 297 297 297 297 297 296 296 296 295 295 295 295 295 294 294 293 293 292 292 292 292 291 291
282 282 283 283 282 282 283 283 282 282 278 279 277 276 283 291 293 293 292 292 292 293 294 294 295 295 295 296 297 297 297 297 297 297 296 296 296 296 296 296 297 297 296 296 297 297 297 297 297 297 297 297 297 297 297 298 298 298 297 298 298 298 298 299 298 299 298 298 298 297 298 298 296 297 298 297 297 297 297 296 296 296 295 295 295 295 295 294 294 293 293 293 292 292 291 292 291
283 283 283 283 283 283 281 280 278 280 281 277 278 278 283 292 292 293 291 292 293 294 293 294 295 294 295 296 296 297 296 297 297 297 296 296 296 296 296 296 296 296 296 296 297 297 296 296 297 297 297 297 297 298 298 298 298 299 298 298 298 298 299 298 298 298 298 298 298 298 298 296 296 297 297 297 297 297 297 297 296 296 296 296 295 295 295 294 294 293 293 294 293 292 292 292 291
Wind_Speed
7 5 4 5 5 5 5 3 2 2 2 2 4 0 3 2 2 4 3 6 3 4 4 3 3 5 6 2 3 3 3 3 1 1 1 1 3 3 4 3 3 3 1 1 3 3 3 5 11 14 15 16 16 16 16 16 16 17 17 17 17 17 17 18 18 19 20 20 21 22 22 23 22 21 21 21 19 19 18 19 19 20 19 17 16 16 16 15 16 16 14 11 12 10 14 18 16
6 5 4 4 4 2 3 5 2 2 2 5 4 5 2 2 1 6 5 8 5 3 2 2 3 2 0 1 1 2 5 4 3 2 0 3 3 4 4 4 4 4 2 2 1 3 2 2 11 13 14 15 15 15 16 16 17 17 17 17 17 17 17 18 18 18 18 19 20 21 22 23 22 23 21 20 20 19 18 18 18 19 20 19 17 17 15 15 15 14 15 14 13 15 13 17 16
7 3 3 3 5 3 5 2 2 2 4 4 3 3 2 2 5 6 8 7 6 3 2 0 1 1 1 5 3 4 2 1 2 3 0 4 2 4 5 4 4 3 2 1 0 2 2 3 10 12 13 14 14 15 15 16 17 17 17 16 17 17 18 18 18 18 19 19 20 20 20 21 22 22 22 21 19 19 18 18 17 18 19 20 18 16 15 15 14 13 14 13 13 16 19 12 14
5 6 4 2 2 3 2 1 3 4 4 4 4 1 2 5 6 7 7 5 4 0 1 2 2 1 4 4 4 3 2 3 3 2 1 3 2 3 4 3 5 2 1 0 1 1 2 4 9 11 13 14 14 14 15 15 16 17 17 17 17 17 18 18 19 19 19 19 20 21 21 22 21 21 22 21 20 18 18 18 17 17 19 18 17 17 16 15 15 14 13 12 13 14 16 13 14
4 4 3 3 2 2 1 2 2 4 3 4 3 2 5 5 6 6 5 2 4 2 2 2 1 1 3 1 2 1 1 5 2 3 0 3 2 3 2 3 3 2 1 1 1 1 2 6 8 10 12 13 13 14 14 15 16 16 16 17 17 17 18 18 19 19 19 19 20 20 21 21 21 21 21 20 20 19 17 18 18 17 19 18 18 16 15 15 14 11 11 11 11 12 13 13 12
6 5 5 2 2 0 1 2 4 6 3 5 3 3 5 5 6 5 6 3 4 1 3 1 3 4 2 3 0 1 2 0 1 3 2 1 2 2 3 2 2 2 2 2 3 1 1 5 8 9 12 12 13 14 14 15 16 16 16 16 17 18 18 19 19 19 19 20 20 21 21 22 21 21 21 20 20 19 19 18 18 17 20 19 18 17 14 14 14 12 10 10 10 11 11 12 12
3 3 2 3 2 0 2 3 5 4 3 5 5 4 4 4 5 1 5 4 1 2 2 3 3 1 3 2 2 2 3 2 1 2 1 2 0 1 2 2 2 2 3 3 3 2 2 9 8 8 11 12 13 14 14 15 16 16 16 17 17 18 19 20 20 20 19 20 20 21 21 21 21 20 20 20 21 21 19 19 17 16 17 19 18 15 14 14 13 13 10 9 9 9 10 10 15
4 1 1 2 1 1 2 4 5 3 2 5 5 6 5 5 3 0 3 3 3 1 2 2 1 2 3 3 1 1 5 1 2 2 3 1 1 3 3 2 2 1 2 2 2 2 4 8 8 9 10 11 12 14 14 15 16 17 17 17 17 18 19 20 21 20 21 21 20 21 21 20 21 20 19 19 18 20 20 19 18 16 16 17 18 16 14 14 13 13 12 10 10 9 10 10 12
3 2 1 2 1 1 3 4 3 4 3 3 5 5 5 4 2 1 1 2 2 0 2 3 2 3 2 4 1 5 3 4 2 3 2 2 2 2 1 3 2 1 2 2 2 3 3 6 9 9 10 11 12 13 15 15 16 17 17 17 18 18 19 20 20 20 20 21 21 21 21 21 21 20 19 20 20 20 20 19 18 18 16 16 15 14 14 14 12 12 13 11 10 9 9 9 9
2 0 0 1 2 2 4 3 3 2 4 4 4 5 4 2 4 2 1 3 4 1 5 2 1 4 4 2 5 1 2 2 0 2 3 2 2 1 3 2 2 1 1 1 2 3 3 6 9 10 9 9 11 14 14 15 16 17 17 17 18 18 19 20 20 21 20 21 21 21 22 20 20 20 19 19 20 19 19 20 18 16 16 15 14 14 14 13 14 13 13 12 10 9 8 8 8
2 2 2 0 1 2 3 4 5 2 4 2 4 4 4 3 0 1 1 3 1 1 3 2 4 1 2 1 3 2 3 3 1 2 3 3 2 3 2 2 3 0 2 1 2 3 3 3 6 9 8 9 11 14 14 15 16 16 17 17 18 18 19 20 21 21 21 20 21 22 22 22 21 20 19 18 17 18 18 17 18 16 15 15 15 13 12 13 13 13 13 13 12 9 9 6 6
2 1 1 3 1 0 3 5 4 4 4 2 3 4 1 2 1 1 3 1 3 2 2 3 1 1 3 2 2 4 4 2 1 3 2 1 2 2 1 2 3 2 1 0 1 3 3 3 3 5 8 10 11 13 14 15 15 16 17 17 18 18 19 20 20 21 21 21 22 22 23 22 21 19 17 16 17 18 16 15 15 15 14 14 13 13 13 11 13 14 12 12 12 9 7 6 5
2 1 1 1 1 3 4 6 4 4 3 3 5 3 2 2 1 1 1 1 2 2 4 3 0 2 1 2 2 5 4 2 3 2 1 1 2 2 3 3 3 3 2 1 2 4 3 2 2 3 5 10 9 11 14 14 16 16 17 17 18 18 19 19 20 20 21 21 22 22 23 22 21 20 17 18 16 16 15 14 14 15 15 13 12 12 12 12 12 11 11 11 11 9 7 6 6
1 1 2 1 2 3 2 3 4 3 1 4 4 5 3 2 1 3 1 2 3 0 2 2 1 3 3 2 2 4 3 1 3 0 1 1 3 3 4 4 4 4 3 4 5 2 0 1 2 3 3 3 3 5 8 13 15 16 17 18 18 18 18 19 19 20 20 20 21 23 24 23 21 18 18 19 17 16 17 15 13 13 13 12 12 12 10 10 11 12 11 11 10 9 8 4 6
1 1 1 1 2 1 0 2 5 2 2 4 3 3 3 1 2 2 2 3 5 2 3 1 1 1 1 2 1 2 3 3 0 1 1 3 4 4 5 5 4 5 4 5 3 1 0 0 1 3 3 3 3 4 4 5 13 15 16 17 17 18 18 19 19 20 19 18 20 22 23 22 19 18 18 18 16 17 17 15 14 13 13 13 12 11 12 10 11 11 12 10 10 10 8 6 4
2 3 1 1 1 1 1 1 2 0 2 5 3 3 3 4 1 2 1 2 1 2 1 1 0 2 3 3 2 2 3 1 0 0 2 3 3 4 6 3 5 3 3 2 1 2 2 0 1 1 3 3 3 4 4 4 7 14 15 16 16 17 17 18 18 18 18 17 17 22 24 16 14 13 19 15 17 18 17 15 15 13 13 13 12 11 10 10 10 11 11 11 10 9 8 7 5
1 0 1 1 1 1 1 0 2 1 4 3 3 3 2 3 3 1 2 1 3 1 3 2 3 2 3 3 1 3 4 3 4 1 2 2 3 5 5 4 3 3 2 1 0 1 2 1 1 2 2 3 4 4 4 4 5 11 8 11 13 14 15 16 16 14 12 9 11 15 16 11 8 8 8 8 16 13 16 14 14 14 12 11 10 10 10 9 11 11 11 10 10 9 8 8 6
1 1 1 1 2 5 3 4 3 4 3 4 5 3 1 3 3 2 1 3 4 4 4 3 4 4 4 3 1 2 1 1 1 1 2 3 3 4 4 3 3 3 3 2 2 3 4 3 1 1 3 4 4 4 3 3 4 5 7 6 5 7 8 10 7 7 9 6 9 10 9 9 8 8 8 8 7 10 10 12 11 11 9 8 9 9 10 10 10 12 11 10 11 9 9 4 2
2 3 2 2 4 1 4 2 6 1 4 6 3 1 1 4 0 1 2 2 8 6 7 6 5 7 7 5 3 3 3 1 2 2 3 4 4 5 4 3 3 3 3 3 3 4 1 0 1 3 3 4 4 4 3 4 4 5 6 5 5 7 8 6 6 6 5 7 7 8 7 7 9 8 8 9 8 15 13 15 13 11 9 6 5 7 8 10 11 11 10 11 10 10 5 2 2
2 1 3 3 4 4 6 6 4 7 4 5 4 3 1 3 1 2 2 4 4 4 3 5 5 2 1 3 4 2 3 0 1 3 4 5 5 4 3 3 3 3 3 1 1 3 0 2 3 2 3 3 3 4 3 4 4 5 4 5 6 6 6 6 6 5 5 6 7 7 7 8 10 8 11 12 10 8 8 11 11 13 11 10 10 6 9 10 11 9 10 10 8 3 3 4 3
4 4 3 2 3 3 4 4 5 5 5 5 4 3 2 2 1 1 3 5 5 1 3 3 3 3 2 1 5 2 2 3 5 5 5 5 5 2 1 2 2 2 1 2 2 2 2 3 2 1 2 3 2 3 3 4 4 5 3 5 5 6 6 7 6 4 5 7 7 7 7 7 8 8 8 7 6 7 8 7 5 5 5 4 7 6 5 7 7 5 4 4 2 3 4 5 4
4 4 4 4 4 6 3 5 6 4 5 4 3 2 1 2 2 3 3 4 0 0 3 1 1 2 1 2 1 2 4 4 4 4 5 4 2 2 1 2 2 2 2 3 3 2 1 1 3 1 2 2 2 3 3 3 5 3 3 4 6 6 5 7 6 6 6 6 6 7 8 8 8 7 7 8 7 6 7 7 6 5 6 7 5 6 6 6 6 6 5 5 4 5 5 5 4
5 3 3 5 5 6 3 4 4 4 2 2 0 3 2 3 3 2 5 6 4 1 0 2 2 1 0 1 3 4 4 4 4 4 3 2 2 2 2 1 1 2 2 2 2 2 1 2 3 1 1 1 3 3 3 4 3 2 2 3 4 6 6 6 6 6 6 4 6 6 7 7 7 8 7 8 8 6 6 5 6 5 6 6 8 7 8 4 1 2 5 5 5 5 4 4 3
5 3 3 7 6 7 5 4 4 2 5 3 2 3 3 2 4 2 2 5 7 5 3 3 1 1 3 4 4 4 4 4 4 3 3 3 2 2 1 1 1 1 1 3 1 1 1 1 1 2 3 1 2 2 3 4 2 2 3 2 3 5 6 5 6 6 5 6 5 6 6 5 6 8 8 8 8 7 7 5 4 6 6 6 7 7 8 7 6 6 3 2 2 2 2 1 4
6 5 3 3 4 4 3 2 2 2 0 1 2 3 4 3 2 3 6 7 7 7 4 2 2 3 4 4 4 4 4 5 5 5 3 3 3 2 1 2 2 3 4 1 1 1 1 1 0 1 1 1 1 2 4 3 2 3 2 2 3 4 4 4 6 6 5 5 5 6 6 6 5 7 8 9 7 7 7 7 6 6 6 6 6 6 7 6 6 6 6 5 6 5 6 6 7
3 5 4 3 3 3 2 3 1 0 0 0 3 5 5 1 5 5 13 8 5 4 4 4 4 4 4 5 5 5 4 4 3 3 4 3 1 1 4 4 4 4 2 0 0 2 0 1 1 1 1 2 2 3 4 3 2 3 2 2 4 3 4 6 5 5 5 5 4 5 6 5 5 5 7 8 7 7 7 6 6 6 6 6 6 6 6 6 6 6 6 6 7 7 7 6 7
6 6 5 5 4 3 1 1 1 1 2 1 1 3 3 3 1 5 2 3 5 4 4 4 5 5 5 5 4 4 4 4 4 2 1 1 3 5 6 6 5 4 2 1 1 1 1 0 2 2 1 2 2 3 3 3 3 3 2 3 4 2 3 6 6 5 5 4 5 4 5 6 6 5 6 8 7 7 7 6 5 4 5 6 6 5 5 5 5 6 6 6 5 5 6 6 7
7 8 7 4 2 1 1 1 1 1 2 2 3 5 4 1 1 7 3 4 5 5 6 5 5 5 5 5 5 4 4 3 2 2 4 3 4 3 1 2 1 0 1 3 2 2 1 3 3 1 1 1 2 4 4 3 3 2 2 3 4 1 3 5 6 5 4 5 4 4 5 7 6 4 5 6 6 8 7 7 6 6 5 4 5 5 5 5 5 5 6 6 6 6 7 8 6
7 5 3 2 3 2 3 3 2 0 1 2 2 5 4 4 6 10 4 5 5 4 4 5 6 6 6 5 4 4 5 4 5 4 4 4 4 2 3 3 3 3 3 2 3 3 4 4 2 3 1 2 3 4 4 3 3 2 2 3 3 1 3 4 6 6 5 5 4 4 5 7 6 5 6 6 4 6 6 7 7 5 5 4 4 5 6 5 4 5 6 5 6 7 8 7 6
3 2 2 2 2 3 5 1 1 2 0 1 1 4 2 10 13 2 6 5 4 4 4 5 5 5 4 4 4 4 4 4 4 5 4 4 3 2 3 3 4 4 5 3 2 3 4 2 2 3 2 2 4 3 3 3 3 2 3 3 2 1 2 4 4 5 5 6 4 5 4 6 6 6 5 7 4 4 5 6 7 6 4 3 4 4 6 6 6 5 5 5 6 7 8 6 7
1 2 1 1 2 1 4 2 2 3 1 2 1 1 4 4 7 4 4 5 5 4 5 6 5 5 4 4 4 4 4 4 4 4 5 5 4 4 3 3 4 4 4 4 5 4 3 2 2 2 2 3 4 4 4 3 3 3 3 4 1 1 2 4 4 3 4 5 4 5 4 6 5 7 6 6 6 4 4 5 7 6 5 5 5 5 4 4 5 5 5 5 6 7 7 6 7
1 1 1 2 2 1 2 2 0 2 0 2 1 2 4 2 5 5 4 4 4 4 5 5 4 4 4 3 4 4 5 4 5 5 4 4 4 4 3 4 3 3 3 3 3 3 2 3 2 2 2 4 4 4 3 3 3 4 3 4 2 0 2 4 3 2 3 4 4 4 4 5 4 7 7 7 6 6 4 4 5 6 4 4 5 5 4 5 5 4 4 3 5 6 6 7 6
2 2 1 1 2 2 1 1 1 1 2 2 3 4 7 1 4 5 5 5 4 5 5 5 5 5 4 3 3 3 2 2 2 3 4 4 4 4 2 1 2 2 2 2 2 2 2 3 3 3 4 4 4 4 3 2 2 3 4 4 2 1 3 3 4 1 3 3 3 4 4 5 4 5 7 7 7 6 5 5 4 4 4 5 4 5 6 5 6 5 6 6 4 4 6 6 5
3 4 3 1 1 1 1 1 1 3 1 1 4 2 5 4 3 5 5 6 6 5 5 5 5 4 3 3 2 2 1 2 3 3 3 2 4 4 4 3 2 1 2 2 2 2 3 3 2 2 3 2 3 3 4 3 3 4 4 5 4 4 4 3 3 1 1 3 2 4 4 5 4 5 5 7 7 7 5 5 5 5 4 5 5 5 5 4 4 4 5 5 5 5 5 5 6
2 3 3 1 2 4 0 1 0 3 2 4 3 6 12 10 12 7 10 8 6 6 6 5 5 4 4 3 2 2 2 2 3 3 2 1 4 4 2 1 2 1 2 2 2 3 3 3 3 4 4 4 4 4 4 4 4 5 6 5 4 3 4 4 4 1 1 2 1 2 4 4 4 5 4 5 6 7 7 6 6 5 4 4 4 4 4 3 3 3 4 5 5 5 5 5 4
3 3 2 3 2 2 1 2 1 2 3 3 5 6 6 7 5 4 7 8 8 6 5 4 4 3 1 2 2 2 2 2 1 1 3 2 2 2 2 2 1 1 1 2 3 2 3 4 3 4 4 4 3 3 2 4 5 4 3 1 2 2 3 1 2 4 2 2 0 2 3 4 3 4 4 5 4 6 7 6 6 7 5 3 3 3 3 2 2 3 3 3 4 4 4 3 3
4 3 2 5 1 0 2 3 2 3 3 5 6 7 7 8 6 7 5 9 5 5 5 4 4 3 4 4 4 4 2 3 2 1 0 1 1 1 2 1 1 1 3 3 3 4 4 4 3 4 4 4 3 2 2 2 2 4 3 2 2 2 3 2 3 3 3 2 0 1 3 5 3 4 3 4 4 5 6 6 6 7 7 5 3 2 1 1 1 1 2 3 3 4 3 2 1
2 3 4 5 1 2 2 2 1 0 3 4 4 6 9 8 7 7 4 8 6 5 5 5 5 5 5 5 5 3 2 0 1 2 4 4 3 4 3 2 2 2 4 4 5 5 4 4 4 4 3 3 4 2 2 2 1 1 1 3 2 3 4 3 3 3 1 1 1 2 3 3 3 4 2 3 3 3 5 6 6 5 6 7 6 4 4 4 4 4 3 1 1 4 2 1 2
4 3 4 3 3 5 2 2 1 1 0 6 5 9 14 8 7 3 7 5 3 5 3 3 4 6 5 5 4 2 0 2 1 2 2 4 5 5 5 4 4 5 5 4 3 3 3 3 3 4 4 4 3 3 2 3 1 2 1 2 1 3 3 4 4 4 1 1 2 3 3 3 3 3 2 2 3 2 3 4 6 6 5 6 7 6 5 6 6 6 6 4 3 1 2 1 2
3 4 2 2 1 4 4 1 2 4 3 3 5 9 13 10 3 2 3 3 1 1 0 0 1 1 1 1 3 4 2 1 3 2 1 0 4 5 5 5 5 5 4 4 4 5 4 4 4 4 4 3 3 2 2 2 2 2 2 1 4 3 6 4 5 4 4 3 4 3 3 4 3 2 3 2 3 3 2 2 3 5 5 5 6 6 5 5 6 6 6 7 4 3 3 0 1
4 3 1 1 3 1 2 6 8 10 0 1 8 6 5 1 3 1 0 2 1 1 1 1 2 3 3 1 1 1 2 2 2 2 2 1 1 2 4 5 4 4 4 5 5 4 3 4 3 2 2 2 2 2 2 2 1 1 3 4 4 4 4 4 4 5 4 4 3 3 5 4 3 3 2 2 2 3 2 2 2 2 3 4 4 5 4 4 4 5 6 6 7 2 6 2 1
1 1 1 1 1 2 4 7 8 2 1 1 4 5 1 1 2 4 2 1 2 3 3 4 4 4 4 4 4 4 4 3 2 3 2 1 1 1 1 0 2 4 4 6 5 4 3 3 4 3 3 3 3 3 3 2 2 3 2 3 3 3 4 2 3 2 2 4 5 4 4 5 4 3 3 2 1 2 3 1 1 2 3 3 3 3 4 4 4 4 5 4 5 6 3 5 3
1 1 1 2 1 1 4 5 3 2 1 2 1 2 4 1 1 1 2 3 3 3 4 5 4 5 5 5 4 4 4 4 4 3 2 2 3 2 3 4 4 4 4 3 3 3 3 4 4 4 4 4 4 4 3 3 3 3 4 5 5 5 5 5 3 2 2 2 1 1 3 4 5 4 4 4 3 2 3 3 2 2 3 4 2 2 3 1 2 1 2 4 4 5 5 3 6
0 1 1 1 1 2 2 2 1 2 2 1 4 2 1 5 3 2 3 0 1 3 5 5 5 5 5 5 5 4 4 4 4 4 4 4 4 4 3 3 1 2 2 2 3 4 4 5 5 5 4 5 4 4 4 5 5 5 5 5 5 5 5 7 5 5 4 2 2 4 3 4 4 5 4 4 4 4 3 4 3 2 3 4 2 3 2 0 2 2 0 1 3 4 4 3 4
0 1 1 1 0 2 2 1 4 2 1 1 1 2 1 3 3 1 0 1 2 5 6 5 6 5 5 5 4 5 4 3 4 4 4 3 3 3 3 2 3 2 2 3 4 5 5 5 4 4 5 4 4 5 4 5 5 6 6 4 4 5 5 6 5 4 4 4 4 4 4 4 4 5 5 5 5 5 4 4 4 4 4 4 3 4 3 0 1 1 1 2 1 2 2 2 2
1 1 1 1 1 1 2 1 2 1 2 1 1 2 0 5 1 0 1 1 2 2 4 5 4 1 5 5 4 4 3 3 2 2 2 2 2 2 2 2 2 4 4 4 4 4 4 4 4 5 6 5 5 5 5 5 5 5 5 5 5 6 4 4 3 4 4 3 4 4 4 5 5 5 6 5 5 5 5 5 4 4 4 4 4 4 4 1 1 2 4 4 2 1 2 3 4
2 1 0 1 1 1 1 3 1 2 0 1 2 2 1 2 2 4 1 1 1 1 2 2 2 1 2 1 3 3 3 4 4 4 4 4 3 3 2 4 5 5 4 4 4 4 4 5 5 5 7 6 5 6 6 6 5 5 6 5 6 6 6 5 4 5 4 3 4 5 5 6 6 6 6 6 6 5 5 5 5 5 5 4 4 4 5 4 4 4 4 4 4 4 4 4 3
1 1 1 2 1 1 0 1 1 2 0 1 1 1 3 2 1 2 1 1 2 2 1 4 3 1 1 1 1 1 2 3 3 4 3 3 3 4 4 5 5 6 5 5 5 4 5 5 4 5 6 5 5 6 6 6 6 6 6 6 7 7 6 5 6 6 6 5 5 5 5 4 4 5 4 6 6 6 6 6 5 5 5 5 6 6 5 5 5 5 4 5 5 5 5 5 4
0 2 1 2 1 1 2 1 3 1 0 1 1 2 1 4 7 1 3 3 2 2 3 2 1 1 2 1 1 0 1 1 1 1 2 3 4 5 5 5 5 5 5 5 5 5 5 5 5 5 7 5 6 6 7 7 6 6 7 7 7 7 6 6 6 7 6 6 6 5 5 6 5 4 5 6 6 7 7 6 6 7 7 7 6 5 5 5 5 5 5 5 5 5 6 6 6
3 2 2 2 2 1 1 1 1 0 1 1 1 1 1 5 2 1 4 2 3 3 3 1 1 0 0 1 2 3 4 3 3 3 4 4 5 5 5 6 6 6 5 4 4 4 4 4 5 5 8 5 5 5 6 6 7 7 7 7 7 7 7 7 7 7 7 7 7 7 6 7 7 7 6 6 7 7 7 8 7 8 7 7 7 7 7 6 6 7 5 6 6 7 5 5 6
1 1 1 1 2 1 0 1 0 2 5 1 4 1 2 2 2 1 5 4 2 3 1 1 0 0 1 1 2 4 4 4 4 4 5 5 5 5 5 5 5 5 5 4 4 4 3 5 4 5 6 6 5 6 5 6 7 6 7 7 7 6 7 7 7 7 7 7 7 7 7 6 7 7 7 7 5 5 8 7 7 7 7 7 7 7 7 7 6 6 6 7 7 6 7 7 7
2 1 0 1 1 0 1 1 1 1 3 4 0 3 3 1 1 2 2 2 1 2 1 1 1 2 1 2 3 4 4 4 2 1 2 3 4 4 4 5 5 5 5 5 5 4 4 5 5 5 6 6 5 5 5 6 7 6 6 7 8 7 7 6 7 7 7 7 7 7 8 7 7 7 7 6 6 6 7 8 7 8 7 7 7 7 7 7 7 7 7 7 8 5 7 8 8
1 2 1 1 1 0 1 1 1 1 1 5 1 4 3 1 1 2 0 1 1 2 1 1 2 2 1 3 4 3 2 1 1 1 3 4 4 5 5 5 5 5 5 5 5 5 5 5 5 5 5 5 5 6 6 6 6 5 6 7 6 6 7 7 8 8 8 7 7 7 7 7 6 6 6 5 6 5 6 7 7 8 8 8 7 7 8 7 7 7 8 8 9 7 8 9 8
1 0 1 1 1 1 1 1 0 1 1 3 0 2 4 5 3 1 1 1 3 2 2 4 2 1 1 3 4 2 1 2 2 3 3 3 4 5 5 4 5 5 5 5 5 5 4 5 5 6 6 7 6 6 6 5 6 6 6 6 7 7 7 8 8 8 7 6 6 6 6 6 7 7 6 5 5 6 6 6 7 7 8 7 9 8 8 8 8 8 8 9 9 7 8 8 8
0 1 1 1 0 0 1 1 2 3 3 3 3 0 3 3 5 1 3 4 5 4 3 1 3 1 1 1 2 3 4 4 4 4 4 4 5 5 5 5 5 5 5 5 5 5 5 5 5 5 7 7 7 6 5 6 5 5 5 6 6 6 6 7 7 7 6 6 7 7 7 8 7 6 7 7 6 6 6 6 6 7 7 8 8 8 8 8 8 9 8 9 8 8 8 9 9
1 1 2 0 1 0 0 0 1 1 3 3 5 2 5 3 1 6 5 5 5 5 5 2 4 2 2 2 2 2 2 2 3 4 4 4 4 5 5 5 6 6 5 5 5 5 5 5 5 5 6 6 6 6 6 7 6 6 7 5 5 5 6 7 7 7 7 8 8 7 7 6 9 6 7 7 7 7 7 8 7 8 8 8 8 8 8 8 8 9 9 8 9 8 10 11 10
0 1 0 1 0 1 1 0 1 1 1 1 2 5 3 1 1 3 2 6 6 7 5 5 3 2 2 2 1 2 2 2 3 3 4 4 4 5 5 5 5 5 5 5 4 4 5 5 5 5 6 7 6 6 6 6 6 6 6 7 7 6 7 7 6 7 8 9 8 8 8 8 5 7 7 7 7 8 8 8 8 8 9 9 8 9 8 8 8 10 9 10 9 9 10 10 9
0 1 2 1 1 1 1 2 1 1 1 1 0 8 7 8 3 2 3 2 4 2 6 4 2 1 2 2 2 1 3 3 3 3 3 4 4 5 5 5 4 4 4 5 4 3 4 5 5 5 5 5 6 6 5 6 5 5 6 7 6 6 7 6 7 8 8 9 8 8 8 5 7 9 6 8 8 8 7 8 8 9 9 9 9 10 9 8 9 10 10 8 9 10 11 11 9
Wind_Direction
283 246 241 234 251 260 290 223 257 196 261 67 91 357 68 36 114 118 64 167 120 67 40 62 40 24 19 29 5 23 21 29 98 312 268 185 138 90 61 41 20 13 86 46 9 318 337 335 351 347 342 339 338 340 340 340 338 337 335 334 332 330 329 329 329 329 328 328 328 328 328 328 327 326 325 321 318 318 316 316 311 313 311 304 302 302 306 310 312 313 315 329 302 295 258 243 235
271 233 232 247 253 286 243 176 269 199 169 100 60 93 105 119 181 48 63 59 43 67 11 40 31 57 6 31 334 258 85 63 29 111 157 113 119 80 54 40 27 333 58 75 333 315 330 342 352 346 339 336 336 338 339 339 337 336 335 333 332 330 329 329 328 326 327 326 324 325 326 326 326 326 325 321 317 316 315 313 313 309 310 306 297 296 301 305 307 309 314 331 329 321 307 251 244
295 267 250 228 259 236 291 252 264 250 171 112 73 62 202 129 79 79 66 60 64 53 49 17 196 291 300 213 209 356 165 92 94 92 8 65 335 30 28 23 16 302 55 95 234 291 314 350 349 341 334 334 336 336 338 338 336 334 334 333 331 330 330 328 326 326 324 322 319 321 323 323 324 324 323 321 317 314 314 312 313 309 305 303 299 292 290 294 300 309 313 330 325 322 334 301 246
279 274 266 197 287 182 251 217 237 296 36 111 102 65 63 88 84 86 71 73 63 315 34 34 340 109 322 13 23 247 134 119 65 31 358 34 60 10 7 4 342 309 55 115 4 289 320 7 349 337 333 333 334 336 337 336 335 334 334 333 332 330 329 327 325 324 323 321 321 322 323 324 323 322 321 319 317 314 312 311 312 309 303 299 289 287 292 287 292 306 313 317 320 320 333 334 244
277 258 208 269 266 252 313 290 332 33 49 334 84 103 74 84 106 100 90 100 82 8 345 31 261 132 23 308 360 341 32 111 89 154 339 86 37 49 324 5 297 339 359 349 311 355 302 354 340 331 329 330 332 335 335 335 335 335 334 332 331 330 327 326 325 324 323 322 320 320 321 321 321 320 317 315 312 311 311 311 310 309 304 299 292 285 285 284 284 299 313 313 322 330 328 332 280
251 262 197 230 248 274 342 271 69 65 72 282 113 85 71 83 102 98 117 101 98 20 37 305 13 357 179 125 217 47 337 134 28 65 352 92 38 43 332 316 330 330 17 9 343 333 336 337 326 322 326 328 330 333 335 335 335 336 335 332 330 328 327 325 325 324 324 323 321 319 320 322 323 319 315 313 309 308 308 306 310 312 303 299 293 288 285 287 284 284 306 312 320 326 324 322 313
263 240 208 236 252 183 281 60 72 95 358 354 84 102 95 80 85 141 133 149 85 120 56 350 351 291 238 132 137 72 71 101 301 80 138 345 27 350 337 326 344 318 34 354 315 316 3 318 312 315 322 325 329 333 334 335 336 336 336 333 330 327 326 325 326 327 327 325 323 321 321 322 322 322 314 312 310 306 306 305 306 305 300 296 293 291 284 284 281 281 295 306 313 317 314 322 310
263 271 181 203 200 322 73 90 57 5 87 41 38 90 89 96 89 115 95 303 137 227 166 49 262 288 112 229 209 158 112 22 52 63 31 339 321 34 348 323 294 308 17 322 311 334 313 310 314 312 311 321 327 332 335 335 335 335 335 334 330 327 326 325 328 329 328 327 326 324 324 323 322 321 315 309 305 304 305 304 303 305 302 298 296 294 284 280 285 282 277 296 305 307 303 311 309
228 217 52 359 138 267 54 53 100 85 111 106 74 64 74 68 54 33 147 85 170 18 164 148 54 287 77 273 70 189 112 134 182 142 166 243 41 27 300 273 280 342 1 318 336 304 315 318 309 308 311 315 322 332 334 333 332 333 334 334 330 328 326 326 329 330 329 329 329 328 326 325 324 322 317 311 310 309 307 304 301 301 302 294 289 292 289 279 278 294 283 280 303 295 300 311 314
229 238 273 240 114 120 97 161 118 59 94 69 116 123 98 154 116 302 2 145 66 250 78 41 352 274 314 324 124 154 119 75 68 219 125 61 21 253 242 282 321 356 310 315 311 319 316 293 309 316 313 313 323 331 332 329 328 330 332 332 330 327 325 326 330 331 331 331 331 331 328 325 325 323 321 316 315 312 309 306 301 298 301 297 295 292 288 285 278 289 292 279 286 291 288 285 287
255 183 75 295 212 106 182 92 87 147 113 138 96 102 85 70 316 154 8 47 74 2 118 89 219 291 288 242 49 144 124 128 247 67 49 32 286 278 357 333 309 220 278 315 286 293 277 303 309 314 325 325 327 328 328 326 325 326 330 330 329 326 325 326 330 333 333 333 334 334 333 329 325 324 322 316 312 312 310 308 308 304 299 296 289 287 287 282 281 285 285 281 278 279 284 285 309
291 165 76 266 144 278 87 102 111 89 110 154 121 132 140 112 130 230 156 253 141 176 147 202 41 347 276 247 140 159 144 167 105 84 17 312 291 333 321 278 249 248 243 199 278 273 280 295 300 307 329 331 328 327 328 326 325 326 328 329 327 324 323 325 329 331 333 333 336 336 336 334 329 327 322 317 315 319 315 309 307 302 293 293 290 281 278 287 279 273 273 277 273 267 287 296 307
318 190 246 288 351 39 94 103 98 130 133 206 136 109 123 133 213 352 69 352 64 251 119 60 348 235 291 44 162 142 144 63 80 70 277 272 299 310 310 283 286 268 200 173 262 256 247 262 299 322 324 333 333 329 328 328 326 327 328 327 323 321 320 322 326 329 331 333 338 338 338 337 335 333 325 321 326 324 317 308 302 300 297 294 286 282 282 279 274 267 265 266 266 263 280 293 302
7 10 285 106 267 97 75 78 138 153 110 93 71 124 150 181 30 44 324 243 165 258 95 101 273 32 262 266 143 120 102 119 107 86 267 302 289 265 248 246 259 259 207 172 225 222 186 315 319 319 325 327 325 331 324 326 327 326 325 323 320 320 321 321 324 327 330 333 341 342 339 341 337 332 324 327 329 329 324 316 315 311 304 300 292 279 275 283 275 272 267 264 260 256 268 300 296
333 290 8 110 78 81 119 136 183 178 123 116 125 147 152 28 80 55 294 295 76 119 154 94 352 237 42 347 101 59 124 147 163 152 272 281 272 275 266 233 237 254 212 200 216 125 165 357 330 320 316 330 335 329 326 318 325 321 320 321 325 327 326 324 326 330 332 335 341 342 339 338 335 336 336 330 326 326 329 330 321 310 302 296 295 286 276 277 278 268 266 262 258 255 273 284 298
348 341 230 112 124 122 315 10 115 147 137 109 140 124 165 111 113 196 58 1 14 118 259 189 80 256 342 301 80 104 121 78 48 205 266 283 312 304 285 251 211 236 155 177 239 157 126 70 289 299 323 322 342 332 323 317 309 316 321 328 330 331 330 329 332 334 333 336 342 344 342 331 333 334 333 333 323 330 328 326 320 317 312 307 299 288 279 269 272 270 258 261 264 257 268 273 255
291 104 315 81 73 324 204 284 155 83 106 99 136 153 197 147 128 280 103 267 277 217 169 179 203 172 242 246 89 159 134 158 191 227 294 338 351 310 318 329 358 346 36 341 104 118 134 118 3 345 307 344 342 334 308 307 301 312 325 320 325 326 331 332 335 331 326 329 344 338 334 327 328 325 329 334 328 322 323 318 322 328 323 310 298 289 267 259 259 260 253 249 259 258 267 259 254
312 258 193 89 86 70 6 21 48 141 120 144 164 171 245 143 180 115 197 223 233 260 237 207 206 210 211 228 229 129 132 206 220 295 334 340 327 305 313 315 355 339 329 345 10 38 59 43 337 330 357 341 340 323 307 311 302 324 324 315 322 327 326 329 334 327 329 328 341 336 328 330 328 323 321 331 322 314 303 314 338 335 334 318 301 287 268 256 252 245 247 243 246 245 257 259 276
20 294 350 74 20 56 1 62 26 315 125 147 132 142 294 55 298 97 269 235 189 226 226 212 221 212 210 220 218 199 180 178 29 8 317 299 294 284 295 311 324 333 343 14 359 1 49 191 61 15 349 342 334 319 316 311 329 332 309 320 325 332 321 331 330 324 332 332 332 328 324 329 331 322 320 327 339 326 325 331 327 315 292 281 271 270 257 245 248 249 242 239 241 239 260 279 218
108 66 48 56 71 72 42 34 58 18 99 115 125 111 297 81 320 132 240 297 304 259 283 165 197 210 147 183 176 98 78 27 218 235 237 240 249 267 306 319 338 324 351 4 315 280 66 75 62 23 11 330 323 316 318 325 329 306 304 325 328 321 317 333 324 324 336 327 324 324 328 338 336 325 325 332 346 329 320 320 312 293 300 300 277 256 242 232 234 235 237 241 247 278 288 256 222
344 48 31 136 178 115 39 38 33 31 352 110 94 97 248 155 138 31 297 321 236 135 47 27 2 11 4 93 135 152 197 216 226 224 230 238 244 257 279 288 283 315 326 340 312 2 10 77 81 37 342 304 327 318 318 319 302 296 323 324 322 313 325 329 317 334 330 320 324 328 337 338 335 328 327 331 333 327 320 322 317 297 295 284 269 243 248 226 214 216 211 227 238 254 245 245 237
72 53 31 19 73 82 79 62 23 3 9 77 128 188 66 64 219 220 251 241 309 71 92 27 344 9 320 321 323 177 198 232 248 243 235 242 267 283 303 315 336 11 353 354 344 326 331 88 109 82 320 305 323 308 301 292 298 307 331 313 316 313 335 318 322 336 321 321 331 339 343 339 327 323 327 330 324 328 323 329 326 324 316 300 270 244 235 172 188 199 178 190 194 213 221 240 246
92 60 45 40 39 104 88 77 3 347 11 65 333 37 327 245 273 218 211 231 260 2 353 177 202 205 250 262 252 271 265 257 253 258 268 297 301 309 305 302 318 320 339 303 319 285 32 66 100 104 268 285 294 283 302 286 279 303 306 306 320 313 324 316 331 324 313 327 331 345 346 337 330 328 331 333 327 335 332 329 326 328 336 339 346 346 2 14 349 172 166 182 190 189 207 231 234
94 114 99 54 57 73 73 80 15 21 20 40 351 300 272 284 274 77 274 252 261 263 251 136 176 188 221 239 239 240 241 239 250 261 275 265 263 250 237 292 287 275 313 276 283 6 302 112 141 186 219 226 272 288 289 278 282 325 298 305 315 298 314 324 322 311 310 337 333 341 340 329 332 330 335 335 326 334 344 332 329 342 338 344 357 354 359 8 0 0 35 93 122 84 48 308 232
90 95 89 100 84 87 102 112 88 5 77 348 290 275 265 232 263 7 257 245 231 233 179 145 191 219 228 232 245 245 244 238 235 233 219 213 220 202 167 213 254 245 239 255 310 309 261 142 122 259 198 206 245 267 272 268 294 291 286 310 300 295 310 321 307 307 325 332 338 336 336 334 337 334 338 334 321 338 347 0 352 352 348 356 3 9 358 3 356 4 29 42 50 51 45 27 22
41 103 110 113 97 109 130 140 117 126 242 323 311 265 260 82 16 251 250 247 235 134 139 180 197 227 232 233 232 234 233 250 248 254 233 217 181 190 208 206 225 233 209 169 238 248 182 114 259 247 212 187 221 251 259 277 278 282 286 292 277 294 316 313 303 314 323 337 337 333 331 332 332 334 342 332 332 342 351 5 6 354 357 357 359 9 8 12 7 10 23 29 43 36 46 34 28
117 113 104 107 121 124 324 325 148 175 234 147 242 301 298 122 263 278 184 151 118 149 199 200 203 222 230 230 226 216 235 242 241 230 261 219 234 215 217 203 212 214 149 204 215 221 160 206 236 231 220 208 201 243 263 259 262 269 277 275 278 293 321 307 305 314 325 336 327 332 334 331 327 334 342 332 338 343 354 355 9 349 15 5 359 2 7 21 29 29 33 38 54 61 59 45 32
105 112 106 104 145 89 155 245 181 246 223 179 248 266 284 190 137 236 188 173 174 184 205 211 201 220 237 234 219 218 215 230 231 207 229 250 240 228 191 162 184 158 181 218 203 189 205 224 233 220 233 222 211 244 252 253 266 256 280 285 291 285 320 298 308 317 326 332 327 336 347 331 325 336 332 333 340 349 358 358 3 14 21 20 3 359 6 17 38 43 46 51 58 67 65 54 42
148 170 91 120 151 187 184 214 169 184 255 164 321 290 255 194 234 231 181 172 177 211 216 213 208 218 224 224 222 211 210 216 213 198 205 216 222 195 219 193 182 190 210 199 211 199 222 223 206 232 222 250 239 243 250 257 270 280 284 289 285 293 298 313 310 313 326 330 329 337 357 333 325 339 327 325 343 359 6 2 354 14 22 25 12 20 13 360 13 42 47 45 55 60 60 63 63
167 265 131 132 187 243 182 135 224 213 215 353 309 356 208 211 222 228 135 172 173 220 239 231 232 228 223 216 221 225 229 223 217 211 216 219 205 200 205 214 186 188 203 210 207 242 239 216 199 204 217 243 253 245 265 276 283 292 280 280 285 355 313 309 301 313 331 325 332 338 1 336 326 331 331 323 334 2 18 14 353 359 20 26 26 22 29 17 18 27 45 56 60 64 66 59 64
211 62 49 208 154 192 147 214 133 265 110 172 308 252 312 165 196 152 161 163 179 214 224 233 233 234 214 216 220 233 235 217 225 222 208 195 193 195 200 215 215 206 195 200 212 230 251 255 234 215 211 242 256 252 234 240 261 265 277 271 289 271 306 289 292 317 330 322 337 337 358 336 330 333 330 328 320 349 19 25 3 352 16 17 23 27 34 29 25 31 22 45 60 63 71 68 69
223 67 234 233 225 131 149 335 133 306 150 192 293 267 265 150 149 145 158 180 211 232 246 246 244 236 229 222 216 224 229 223 225 222 213 217 194 190 194 221 225 234 216 215 216 221 242 258 248 240 236 246 257 255 251 221 235 250 252 267 255 171 275 285 282 306 318 320 334 339 347 332 335 338 332 331 329 337 5 21 19 355 5 26 30 25 30 42 22 23 24 32 63 57 64 59 51
166 171 282 144 290 161 150 197 46 333 314 239 223 276 334 57 131 164 175 188 201 227 246 248 248 248 252 235 239 231 254 280 269 244 228 219 187 159 176 238 259 243 253 257 245 246 254 263 262 253 256 254 263 279 280 269 247 262 264 253 241 218 243 264 284 282 312 317 335 343 338 327 334 346 337 332 334 331 348 357 2 8 15 25 29 33 28 32 43 29 25 30 35 83 84 85 74
209 192 229 145 257 332 245 341 38 317 261 301 173 231 246 298 203 181 193 194 181 227 243 254 252 251 245 252 252 275 263 249 258 260 258 219 150 150 161 187 232 261 260 261 279 277 267 274 272 267 268 267 272 266 267 267 264 252 246 248 230 212 228 229 251 272 295 309 343 350 322 328 335 344 345 337 336 331 337 349 346 351 24 47 37 36 37 29 47 60 48 30 34 35 47 62 70
339 357 355 359 294 186 60 88 98 298 207 216 267 249 270 266 268 209 196 187 199 211 228 233 242 236 239 225 224 262 257 264 258 235 235 341 124 128 138 173 187 251 282 272 252 251 264 277 272 266 256 254 256 253 257 266 268 265 257 251 261 236 248 232 210 239 227 280 7 337 318 325 333 339 343 344 343 335 336 347 344 342 11 38 60 67 49 22 24 46 73 69 73 68 64 55 58
343 346 349 284 307 339 39 139 97 4 317 289 233 243 267 276 283 295 175 195 192 217 232 238 238 242 293 255 238 227 238 254 268 61 77 63 77 113 147 169 173 183 238 259 270 272 261 267 275 281 272 251 243 247 261 268 266 269 301 310 300 238 252 233 201 196 199 242 71 325 317 306 338 329 340 348 354 344 338 344 344 339 352 23 40 52 61 57 54 59 54 94 94 85 97 105 107
290 260 281 270 321 104 115 90 314 351 303 237 232 242 261 273 271 261 239 166 203 217 231 251 233 211 210 229 210 208 212 240 137 101 128 163 178 152 159 147 165 206 216 238 249 244 243 240 248 259 249 247 233 253 271 255 301 333 334 293 267 308 321 302 288 252 201 181 129 282 299 301 331 325 339 355 353 353 345 337 347 344 342 351 14 29 43 47 28 84 151 111 107 102 84 93 116
321 313 260 301 85 354 32 66 355 339 20 298 320 325 282 272 267 258 125 145 193 205 232 238 238 217 201 199 218 206 215 98 139 206 225 197 181 180 155 167 193 238 257 231 223 230 227 230 227 250 277 281 262 232 243 299 277 236 246 280 314 306 315 318 303 326 277 171 197 233 280 295 319 307 329 344 347 359 354 346 340 346 344 341 338 355 2 14 1 10 17 55 89 126 128 118 146
318 250 298 316 24 277 93 66 202 181 292 268 356 325 291 278 265 232 153 173 205 193 194 217 207 214 199 184 182 187 154 254 275 265 218 182 182 181 174 186 197 207 230 246 240 210 229 231 236 244 245 249 258 237 222 252 274 288 243 271 335 303 278 267 255 240 256 271 239 214 235 271 283 305 321 337 322 344 13 357 340 334 349 341 344 347 357 5 357 359 0 22 352 337 122 164 117
327 342 10 61 10 24 318 188 287 339 291 293 312 304 291 294 251 109 146 162 165 99 171 265 301 318 208 171 163 160 189 255 268 260 279 215 168 182 185 191 205 200 211 238 252 239 223 223 222 225 226 221 230 249 223 222 243 276 336 297 282 248 261 289 302 293 267 263 275 244 230 237 243 268 291 317 330 337 360 349 353 345 339 345 335 341 349 6 356 350 357 352 17 2 349 358 155
17 41 46 9 19 326 197 303 331 298 189 245 286 268 287 231 91 227 64 44 22 285 231 288 274 252 286 16 22 187 216 235 257 289 294 283 263 210 195 201 192 186 198 221 230 219 190 199 216 220 223 219 227 228 224 199 230 299 275 280 275 310 318 299 307 301 249 220 233 210 227 217 231 246 271 284 275 303 316 336 352 339 330 330 338 345 355 355 339 355 352 356 350 13 342 348 320
96 352 42 154 318 301 302 302 319 352 308 298 18 5 325 291 212 158 170 114 261 198 183 243 233 222 221 245 239 223 228 215 226 252 261 271 285 328 342 290 184 203 214 229 215 202 189 214 212 202 203 208 211 227 219 182 195 216 270 289 292 256 276 264 252 243 207 217 226 210 188 184 197 219 240 265 283 294 306 308 324 321 323 331 348 345 325 2 359 14 350 341 340 344 348 333 318
313 246 297 356 305 295 296 311 8 14 357 305 32 89 284 331 289 117 175 190 212 148 215 232 217 218 204 215 213 216 210 219 222 228 247 264 261 243 250 237 232 221 237 194 168 195 217 228 227 218 211 212 205 197 183 166 206 228 228 231 235 251 261 272 259 293 254 252 234 183 202 188 195 193 221 224 237 247 263 289 291 291 293 301 301 344 324 359 336 42 360 351 329 332 347 335 318
189 218 277 315 243 293 319 331 245 242 266 335 36 70 234 316 300 24 28 358 264 209 224 224 219 214 214 200 203 211 205 192 179 202 215 217 216 208 232 244 230 226 221 163 195 208 219 231 223 221 221 219 216 196 188 184 195 208 222 232 236 247 247 258 271 270 269 251 259 260 253 243 200 194 201 212 218 225 235 267 263 268 278 273 281 272 269 353 20 339 278 265 300 288 295 292 295
234 188 315 282 358 295 284 287 273 247 77 334 357 341 73 247 261 14 114 346 241 240 235 223 210 208 208 203 202 206 203 193 177 196 215 221 229 229 222 238 233 223 221 218 219 217 218 222 226 230 231 226 228 209 202 200 198 206 216 223 246 237 231 244 251 259 264 260 260 277 260 255 228 204 200 202 208 211 213 223 240 244 262 276 274 271 264 165 202 245 306 324 295 306 326 305 336
77 321 166 294 324 249 259 299 293 292 62 281 311 338 155 290 297 212 313 82 316 50 80 74 77 94 197 201 206 202 197 197 199 210 216 226 226 236 233 239 260 250 241 230 223 206 216 223 229 230 239 227 224 219 208 213 206 209 222 235 236 253 254 267 262 257 253 256 246 257 252 251 245 217 211 206 204 204 209 211 223 223 231 251 265 261 260 208 237 240 239 239 254 283 285 284 257
285 335 332 252 219 233 218 220 259 16 48 248 256 299 73 304 265 209 152 213 159 46 77 94 103 71 39 127 178 193 205 201 197 210 230 232 233 229 233 243 248 263 250 214 219 215 215 215 222 230 237 229 217 213 204 213 209 206 219 224 228 242 248 243 258 270 264 261 242 247 242 241 236 230 199 210 205 206 206 207 215 219 217 227 236 250 249 227 232 235 237 235 242 236 243 252 279
347 232 251 152 319 250 356 267 331 71 294 251 246 4 10 161 305 47 161 127 69 89 86 79 62 77 167 173 222 221 219 220 203 198 226 239 272 271 250 248 252 253 250 227 227 222 220 224 220 238 255 236 226 217 206 213 204 215 218 219 228 232 230 233 236 243 240 240 237 241 243 248 254 243 207 192 209 206 204 212 211 215 218 220 228 226 230 220 229 225 225 222 232 236 235 242 249
215 273 297 52 336 44 352 25 7 214 199 243 33 1 19 247 234 189 109 111 109 82 94 114 95 27 38 35 38 326 352 359 359 325 280 274 262 267 270 268 271 263 242 224 217 213 218 219 219 233 258 244 230 220 213 212 208 216 215 221 228 230 230 229 231 235 235 235 236 239 238 236 243 251 243 223 209 198 201 205 208 213 221 219 221 219 224 224 223 218 218 224 224 227 226 222 231
309 27 4 51 18 38 323 306 320 74 312 235 122 336 241 253 232 141 138 139 136 112 119 126 141 155 332 349 346 338 324 316 293 275 268 264 268 274 269 272 271 273 270 252 236 216 215 225 233 232 259 251 241 229 218 212 216 218 215 217 222 221 227 224 229 230 235 229 227 230 226 224 226 223 231 226 217 198 199 204 202 210 213 215 214 216 216 221 219 216 217 223 227 232 229 225 228
259 171 73 156 132 152 249 15 316 224 252 245 308 66 242 43 241 184 145 154 139 129 113 141 150 238 256 281 297 294 291 282 253 254 256 261 267 264 267 268 275 280 283 285 277 249 228 243 248 252 266 266 245 240 230 222 226 223 221 220 222 219 223 224 227 223 228 230 232 228 228 223 218 226 221 228 225 192 196 203 207 207 211 213 213 213 216 215 214 216 221 225 230 221 224 227 236
294 99 83 59 154 122 182 220 176 301 353 338 243 201 176 175 178 101 111 93 188 132 160 114 277 234 229 292 283 280 279 281 305 302 305 293 281 290 293 287 277 273 267 263 258 253 248 250 250 248 250 259 253 249 239 229 232 227 224 223 226 223 226 228 235 231 229 222 229 224 233 228 227 227 230 224 226 205 195 201 206 211 210 212 213 213 213 211 212 214 222 224 233 220 223 223 226
309 27 14 230 306 64 82 40 23 99 70 250 206 320 312 253 23 116 71 131 176 144 188 189 231 219 176 261 276 273 279 325 359 342 303 296 308 309 297 294 294 292 290 277 268 257 251 267 275 278 273 272 263 252 250 243 241 232 235 228 228 227 225 227 230 233 232 231 227 231 232 235 237 233 235 224 229 221 210 205 208 214 216 216 217 218 216 216 212 217 221 222 229 223 223 225 221
4 71 247 226 79 119 122 295 287 219 188 275 64 250 300 25 312 323 123 118 155 169 179 212 206 155 200 256 266 265 55 14 358 335 318 301 299 302 304 297 288 285 284 291 288 284 282 283 281 284 287 281 277 272 267 254 247 243 242 237 233 226 227 233 234 238 239 238 241 239 240 245 238 236 231 235 227 227 226 217 218 223 222 218 219 220 218 219 215 221 223 225 226 217 225 229 225
109 169 236 66 295 20 286 93 360 360 328 288 299 18 272 202 253 154 209 189 189 171 160 158 55 32 20 2 18 31 25 1 344 326 321 324 321 317 317 314 311 309 304 301 303 307 308 299 284 271 275 272 273 276 276 279 266 255 243 241 236 238 236 237 238 240 239 237 240 236 232 234 243 239 236 237 230 230 226 228 223 230 227 228 225 222 217 220 215 225 227 232 228 219 224 230 228
234 290 357 278 98 158 356 195 208 128 263 14 292 12 280 234 219 193 200 205 175 147 146 116 83 41 19 22 15 24 350 320 318 316 315 316 313 311 313 315 316 315 312 304 300 305 305 294 292 286 281 283 288 284 278 272 268 266 269 266 258 245 243 237 236 234 238 236 239 235 237 241 236 235 235 231 230 226 226 229 228 228 232 232 232 229 220 220 217 223 225 230 232 222 228 232 235
242 19 37 5 32 232 135 254 129 169 209 251 280 324 281 271 315 28 183 186 153 154 146 129 95 29 16 349 6 340 320 308 299 299 307 307 308 309 308 304 298 299 300 299 294 288 284 294 292 285 284 293 293 288 287 277 277 271 267 263 261 256 252 247 247 234 236 241 242 237 237 237 244 240 231 235 231 230 227 226 227 226 228 230 229 232 224 223 223 228 227 228 231 225 230 237 233
169 147 172 178 130 265 47 282 47 336 119 240 27 266 274 277 31 48 54 51 92 89 129 125 100 51 317 306 322 307 306 293 287 294 295 301 304 306 308 311 306 308 303 306 301 310 314 304 287 286 289 288 291 296 289 288 287 280 275 275 271 262 255 249 243 241 240 244 243 240 239 242 237 245 227 236 234 233 231 229 229 232 230 230 229 229 225 218 225 230 234 227 231 228 233 238 231